RYR7339 EYKA-ESGG

Flight info

Callsign RYR7339
Flight time 1h 15m
Altitude 36000
Route UGNIS DCT TIRIN DCT VEDEN DCT NILEN L617 ARQUS
Aircraft B738/M-SDE3FGIJ1LRWYZ/SB1

Departure

Time 2026-05-07 21:35
Airport Kaunas International Airport (EYKA)

Arrival

Time 2026-05-07 22:51
Airport Göteborg Landvetter Airport (ESGG)
Time Latitude Longitude Altitude Speed Heading
2026-05-07 21:10 54.96591 24.07239 267 ft 0 kts 104°
2026-05-07 21:29 54.96590 24.07245 267 ft 2 kts 104°
2026-05-07 21:29 54.96574 24.07298 267 ft 6 kts 137°
2026-05-07 21:30 54.96534 24.07322 267 ft 7 kts 173°
2026-05-07 21:30 54.96478 24.07331 267 ft 9 kts 175°
2026-05-07 21:30 54.96434 24.07337 267 ft 0 kts 175°
2026-05-07 21:34 54.96426 24.07339 267 ft 4 kts 175°
2026-05-07 21:34 54.96363 24.07337 266 ft 15 kts 182°
2026-05-07 21:34 54.96332 24.07439 265 ft 0 kts 83°
2026-05-07 21:34 54.96333 24.07452 265 ft 12 kts 83°
2026-05-07 21:35 54.96362 24.08053 267 ft 87 kts 85°
2026-05-07 21:35 54.96435 24.09497 267 ft 151 kts 84°
2026-05-07 21:35 54.96527 24.11478 739 ft 166 kts 81°
2026-05-07 21:35 54.96641 24.13413 1745 ft 159 kts 78°
2026-05-07 21:36 54.96795 24.15379 2462 ft 174 kts 79°
2026-05-07 21:36 54.96947 24.17644 2845 ft 199 kts 80°
2026-05-07 21:36 54.97103 24.20118 3347 ft 211 kts 77°
2026-05-07 21:36 54.97687 24.22524 3817 ft 225 kts 53°
2026-05-07 21:37 54.98802 24.24527 4462 ft 238 kts 40°
2026-05-07 21:37 55.00203 24.26275 4955 ft 257 kts 20°
2026-05-07 21:37 55.02001 24.26543 5635 ft 266 kts 350°
2026-05-07 21:37 55.03831 24.26004 6398 ft 275 kts 349°
2026-05-07 21:38 55.05739 24.25526 7205 ft 279 kts 351°
2026-05-07 21:38 55.07672 24.25149 8086 ft 281 kts 351°
2026-05-07 21:38 55.09501 24.24064 8906 ft 279 kts 321°
2026-05-07 21:38 55.10682 24.21463 9824 ft 275 kts 294°
2026-05-07 21:39 55.11529 24.18419 10487 ft 285 kts 295°
2026-05-07 21:39 55.12456 24.15182 10689 ft 311 kts 295°
2026-05-07 21:39 55.13467 24.11686 10984 ft 331 kts 296°
2026-05-07 21:39 55.14525 24.08058 11620 ft 338 kts 296°
2026-05-07 21:40 55.15603 24.04384 12408 ft 341 kts 296°
2026-05-07 21:40 55.16694 24.00673 13205 ft 345 kts 296°
2026-05-07 21:40 55.17437 23.98151 13717 ft 347 kts 295°
2026-05-07 21:40 55.18553 23.94364 14523 ft 352 kts 295°
2026-05-07 21:41 55.19677 23.90548 15372 ft 354 kts 295°
2026-05-07 21:41 55.20809 23.86705 16224 ft 356 kts 294°
2026-05-07 21:41 55.21946 23.82838 17014 ft 359 kts 294°
2026-05-07 21:41 55.23095 23.78922 17776 ft 363 kts 293°
2026-05-07 21:42 55.24252 23.74975 18530 ft 366 kts 293°
2026-05-07 21:42 55.25418 23.70989 19177 ft 369 kts 293°
2026-05-07 21:42 55.26591 23.66975 19797 ft 372 kts 293°
2026-05-07 21:42 55.27772 23.62925 20406 ft 374 kts 293°
2026-05-07 21:43 55.28961 23.58845 21002 ft 377 kts 292°
2026-05-07 21:43 55.30157 23.54728 21565 ft 380 kts 292°
2026-05-07 21:43 55.31345 23.50637 22111 ft 383 kts 292°
2026-05-07 21:43 55.32556 23.46456 22668 ft 386 kts 292°
2026-05-07 21:44 55.33775 23.42241 23218 ft 388 kts 292°
2026-05-07 21:44 55.34999 23.37999 23735 ft 391 kts 292°
2026-05-07 21:44 55.36233 23.33716 24182 ft 394 kts 292°
2026-05-07 21:44 55.37472 23.29406 24630 ft 396 kts 292°
2026-05-07 21:45 55.38719 23.25063 25041 ft 399 kts 291°
2026-05-07 21:45 55.39972 23.20689 25464 ft 402 kts 291°
2026-05-07 21:45 55.41232 23.16282 25873 ft 405 kts 291°
2026-05-07 21:45 55.42517 23.11780 26279 ft 407 kts 291°
2026-05-07 21:46 55.43774 23.07367 26667 ft 410 kts 291°
2026-05-07 21:46 55.45053 23.02870 27055 ft 412 kts 291°
2026-05-07 21:46 55.46357 22.98274 27443 ft 415 kts 290°
2026-05-07 21:46 55.47649 22.93713 27811 ft 417 kts 290°
2026-05-07 21:47 55.48931 22.89177 28180 ft 420 kts 290°
2026-05-07 21:47 55.50251 22.84496 28557 ft 422 kts 290°
2026-05-07 21:47 55.51542 22.79912 28991 ft 423 kts 290°
2026-05-07 21:47 55.52852 22.75254 29362 ft 425 kts 289°
2026-05-07 21:48 55.54165 22.70571 29702 ft 427 kts 289°
2026-05-07 21:48 55.55483 22.65860 30095 ft 427 kts 289°
2026-05-07 21:48 55.56796 22.61165 30544 ft 425 kts 289°
2026-05-07 21:48 55.58102 22.56490 30978 ft 423 kts 289°
2026-05-07 21:49 55.59401 22.51825 31323 ft 423 kts 289°
2026-05-07 21:49 55.60696 22.47156 31646 ft 424 kts 289°
2026-05-07 21:49 55.61993 22.42472 32021 ft 423 kts 289°
2026-05-07 21:49 55.63284 22.37805 32400 ft 422 kts 289°
2026-05-07 21:50 55.64571 22.33140 32756 ft 421 kts 289°
2026-05-07 21:50 55.65855 22.28474 33079 ft 422 kts 289°
2026-05-07 21:50 55.67155 22.23742 33435 ft 421 kts 289°
2026-05-07 21:50 55.68434 22.19079 33802 ft 420 kts 289°
2026-05-07 21:51 55.69691 22.14485 34129 ft 420 kts 289°
2026-05-07 21:51 55.70962 22.09832 34378 ft 420 kts 289°
2026-05-07 21:51 55.72235 22.05157 34613 ft 421 kts 289°
2026-05-07 21:51 55.73507 22.00479 34865 ft 421 kts 289°
2026-05-07 21:52 55.74778 21.95799 35121 ft 421 kts 290°
2026-05-07 21:52 55.76045 21.91120 35356 ft 421 kts 290°
2026-05-07 21:52 55.77314 21.86425 35586 ft 422 kts 290°
2026-05-07 21:52 55.78581 21.81728 35839 ft 422 kts 290°
2026-05-07 21:53 55.79847 21.77024 36067 ft 422 kts 291°
2026-05-07 21:53 55.81117 21.72296 36112 ft 426 kts 291°
2026-05-07 21:53 55.83671 21.62752 36123 ft 427 kts 291°
2026-05-07 21:54 55.86204 21.53268 36116 ft 421 kts 290°
2026-05-07 21:54 55.88699 21.43875 36135 ft 419 kts 290°
2026-05-07 21:55 55.91201 21.34408 36155 ft 427 kts 291°
2026-05-07 21:55 55.93764 21.24717 35342 ft 436 kts 291°
2026-05-07 21:56 55.95049 21.19848 36281 ft 430 kts 292°
2026-05-07 21:56 55.96324 21.15018 36236 ft 433 kts 291°
2026-05-07 21:56 55.98910 21.05169 36153 ft 443 kts 291°
2026-05-07 21:57 56.01522 20.95179 36130 ft 444 kts 291°
2026-05-07 21:57 56.04126 20.85178 36145 ft 443 kts 291°
2026-05-07 21:58 56.06720 20.75160 36135 ft 444 kts 291°
2026-05-07 21:58 56.09307 20.65126 36144 ft 444 kts 291°
2026-05-07 21:59 56.11886 20.55078 36150 ft 444 kts 291°
2026-05-07 21:59 56.14456 20.45021 36152 ft 444 kts 291°
2026-05-07 22:00 56.17001 20.35015 36169 ft 443 kts 291°
2026-05-07 22:00 56.19553 20.24932 36160 ft 444 kts 291°
2026-05-07 22:01 56.22101 20.14822 36157 ft 444 kts 291°
2026-05-07 22:01 56.24641 20.04698 36160 ft 444 kts 290°
2026-05-07 22:02 56.27172 19.94565 36161 ft 444 kts 290°
2026-05-07 22:02 56.29697 19.84410 36182 ft 444 kts 291°
2026-05-07 22:03 56.32213 19.74237 36171 ft 445 kts 291°
2026-05-07 22:03 56.34727 19.64031 36169 ft 446 kts 291°
2026-05-07 22:04 56.37236 19.53797 36169 ft 446 kts 291°
2026-05-07 22:04 56.39738 19.43546 36182 ft 447 kts 291°
2026-05-07 22:05 56.42234 19.33267 36185 ft 447 kts 291°
2026-05-07 22:05 56.44724 19.22966 36182 ft 448 kts 292°
2026-05-07 22:06 56.47210 19.12632 36182 ft 449 kts 291°
2026-05-07 22:06 56.49692 19.02270 36183 ft 449 kts 291°
2026-05-07 22:07 56.52168 18.91867 36185 ft 450 kts 290°
2026-05-07 22:07 56.53671 18.80960 36196 ft 446 kts 275°
2026-05-07 22:08 56.54268 18.69742 36188 ft 448 kts 274°
2026-05-07 22:08 56.54844 18.58482 36190 ft 449 kts 275°
2026-05-07 22:09 56.55444 18.47196 36189 ft 450 kts 275°
2026-05-07 22:09 56.56055 18.35880 36180 ft 451 kts 275°
2026-05-07 22:10 56.56661 18.24552 36189 ft 452 kts 275°
2026-05-07 22:10 56.57258 18.13189 36190 ft 453 kts 275°
2026-05-07 22:11 56.57845 18.01812 36194 ft 454 kts 275°
2026-05-07 22:11 56.58422 17.90406 36193 ft 454 kts 275°
2026-05-07 22:12 56.58988 17.78997 36197 ft 454 kts 275°
2026-05-07 22:12 56.59544 17.67592 36192 ft 454 kts 275°
2026-05-07 22:13 56.60089 17.56176 36198 ft 454 kts 275°
2026-05-07 22:13 56.60624 17.44745 36200 ft 454 kts 275°
2026-05-07 22:14 56.61150 17.33311 36199 ft 455 kts 275°
2026-05-07 22:14 56.61664 17.21872 36199 ft 455 kts 274°
2026-05-07 22:15 56.62169 17.10429 36199 ft 454 kts 274°
2026-05-07 22:15 56.62696 16.98998 36195 ft 454 kts 278°
2026-05-07 22:16 56.64063 16.87796 36195 ft 454 kts 284°
2026-05-07 22:16 56.65624 16.76666 36202 ft 454 kts 284°
2026-05-07 22:17 56.67140 16.65520 36207 ft 454 kts 283°
2026-05-07 22:17 56.68606 16.54338 36211 ft 454 kts 283°
2026-05-07 22:18 56.70761 16.37547 36214 ft 454 kts 283°
2026-05-07 22:19 56.72183 16.26351 36212 ft 454 kts 283°
2026-05-07 22:19 56.73592 16.15182 36195 ft 447 kts 283°
2026-05-07 22:19 56.74275 16.09740 36192 ft 435 kts 283°
2026-05-07 22:20 56.74942 16.04400 36135 ft 430 kts 283°
2026-05-07 22:20 56.75600 15.99117 35841 ft 424 kts 283°
2026-05-07 22:20 56.76245 15.93916 35595 ft 418 kts 283°
2026-05-07 22:20 56.76879 15.88781 35345 ft 413 kts 283°
2026-05-07 22:21 56.77505 15.83699 35098 ft 410 kts 283°
2026-05-07 22:21 56.78125 15.78644 34852 ft 407 kts 283°
2026-05-07 22:21 56.78739 15.73622 34612 ft 404 kts 283°
2026-05-07 22:21 56.79347 15.68633 34374 ft 402 kts 283°
2026-05-07 22:22 56.79950 15.63662 34132 ft 401 kts 284°
2026-05-07 22:22 56.80550 15.58704 33854 ft 400 kts 284°
2026-05-07 22:22 56.81147 15.53755 33582 ft 399 kts 283°
2026-05-07 22:22 56.81540 15.50483 33404 ft 398 kts 283°
2026-05-07 22:23 56.82131 15.45549 33136 ft 398 kts 283°
2026-05-07 22:23 56.82720 15.40614 32872 ft 397 kts 283°
2026-05-07 22:23 56.83306 15.35690 32613 ft 397 kts 283°
2026-05-07 22:23 56.83889 15.30772 32349 ft 395 kts 283°
2026-05-07 22:24 56.84464 15.25900 32074 ft 390 kts 283°
2026-05-07 22:24 56.85031 15.21075 31716 ft 387 kts 283°
2026-05-07 22:24 56.85592 15.16287 31367 ft 384 kts 283°
2026-05-07 22:24 56.86147 15.11536 31025 ft 381 kts 283°
2026-05-07 22:25 56.86697 15.06811 30680 ft 379 kts 283°
2026-05-07 22:25 56.87242 15.02113 30344 ft 376 kts 283°
2026-05-07 22:25 56.87781 14.97455 29943 ft 374 kts 283°
2026-05-07 22:25 56.88315 14.92816 29578 ft 370 kts 283°
2026-05-07 22:26 56.88841 14.88235 29213 ft 367 kts 283°
2026-05-07 22:26 56.89361 14.83687 28865 ft 363 kts 283°
2026-05-07 22:26 56.89874 14.79184 28519 ft 360 kts 282°
2026-05-07 22:26 56.90381 14.74717 28164 ft 357 kts 282°
2026-05-07 22:27 56.90882 14.70294 27823 ft 354 kts 282°
2026-05-07 22:27 56.91378 14.65895 27475 ft 351 kts 282°
2026-05-07 22:27 56.91869 14.61533 27134 ft 349 kts 282°
2026-05-07 22:27 56.92355 14.57195 26796 ft 346 kts 282°
2026-05-07 22:28 56.92836 14.52889 26464 ft 344 kts 282°
2026-05-07 22:28 56.93313 14.48610 26133 ft 342 kts 282°
2026-05-07 22:28 56.93784 14.44362 25804 ft 340 kts 282°
2026-05-07 22:28 56.94252 14.40129 25477 ft 338 kts 282°
2026-05-07 22:29 56.94715 14.35927 25149 ft 336 kts 282°
2026-05-07 22:29 56.95176 14.31736 24829 ft 335 kts 282°
2026-05-07 22:29 56.95633 14.27563 24503 ft 333 kts 282°
2026-05-07 22:29 56.96086 14.23408 24175 ft 332 kts 282°
2026-05-07 22:30 56.96537 14.19265 23859 ft 331 kts 282°
2026-05-07 22:30 56.96984 14.15141 23495 ft 330 kts 282°
2026-05-07 22:30 56.97423 14.11081 23127 ft 328 kts 282°
2026-05-07 22:30 56.97869 14.06943 22791 ft 326 kts 282°
2026-05-07 22:31 56.98305 14.02880 22469 ft 323 kts 282°
2026-05-07 22:31 56.98730 13.98907 22168 ft 321 kts 282°
2026-05-07 22:31 56.99157 13.94910 21846 ft 318 kts 282°
2026-05-07 22:31 56.99579 13.90939 21535 ft 316 kts 282°
2026-05-07 22:32 56.99998 13.86990 21225 ft 314 kts 282°
2026-05-07 22:32 57.00412 13.83071 20919 ft 312 kts 282°
2026-05-07 22:32 57.00823 13.79172 20614 ft 310 kts 282°
2026-05-07 22:32 57.01235 13.75247 20306 ft 308 kts 282°
2026-05-07 22:33 57.01639 13.71389 20006 ft 307 kts 281°
2026-05-07 22:33 57.02039 13.67553 19708 ft 305 kts 281°
2026-05-07 22:33 57.02435 13.63742 19410 ft 304 kts 281°
2026-05-07 22:33 57.02830 13.59939 19112 ft 303 kts 281°
2026-05-07 22:34 57.03221 13.56152 18816 ft 301 kts 281°
2026-05-07 22:34 57.03610 13.52378 18526 ft 300 kts 281°
2026-05-07 22:34 57.03996 13.48619 18191 ft 299 kts 281°
2026-05-07 22:34 57.04375 13.44916 17870 ft 298 kts 281°
2026-05-07 22:35 57.04756 13.41193 17563 ft 296 kts 281°
2026-05-07 22:35 57.05133 13.37488 17262 ft 294 kts 281°
2026-05-07 22:35 57.05511 13.33757 16965 ft 292 kts 281°
2026-05-07 22:35 57.05875 13.30156 16678 ft 290 kts 281°
2026-05-07 22:36 57.06242 13.26521 16394 ft 288 kts 280°
2026-05-07 22:36 57.06610 13.22861 16104 ft 286 kts 280°
2026-05-07 22:36 57.06970 13.19271 15821 ft 285 kts 280°
2026-05-07 22:36 57.07326 13.15705 15540 ft 283 kts 280°
2026-05-07 22:37 57.07676 13.12193 15260 ft 282 kts 280°
2026-05-07 22:37 57.08027 13.08655 14987 ft 281 kts 280°
2026-05-07 22:37 57.08382 13.05087 14714 ft 280 kts 280°
2026-05-07 22:37 57.08728 13.01581 14428 ft 279 kts 280°
2026-05-07 22:38 57.09073 12.98076 14154 ft 278 kts 280°
2026-05-07 22:38 57.09410 12.94637 13869 ft 277 kts 280°
2026-05-07 22:38 57.09822 12.91194 13560 ft 275 kts 288°
2026-05-07 22:38 57.10465 12.87894 13296 ft 273 kts 291°
2026-05-07 22:39 57.11162 12.84626 13011 ft 271 kts 291°
2026-05-07 22:39 57.12009 12.81561 12480 ft 278 kts 307°
2026-05-07 22:39 57.13314 12.78807 11971 ft 285 kts 312°
2026-05-07 22:39 57.14653 12.76105 11644 ft 285 kts 312°
2026-05-07 22:40 57.15954 12.73444 11372 ft 282 kts 311°
2026-05-07 22:40 57.17254 12.70744 11081 ft 281 kts 311°
2026-05-07 22:40 57.18559 12.67998 10783 ft 280 kts 310°
2026-05-07 22:40 57.19832 12.65292 10488 ft 279 kts 310°
2026-05-07 22:41 57.21081 12.62623 10209 ft 278 kts 310°
2026-05-07 22:41 57.22337 12.59929 9906 ft 277 kts 310°
2026-05-07 22:41 57.23586 12.57238 9586 ft 276 kts 310°
2026-05-07 22:41 57.24836 12.54544 9265 ft 275 kts 309°
2026-05-07 22:42 57.26079 12.51857 8928 ft 275 kts 309°
2026-05-07 22:42 57.27322 12.49168 8602 ft 275 kts 309°
2026-05-07 22:42 57.28563 12.46480 8281 ft 275 kts 309°
2026-05-07 22:42 57.29802 12.43792 7977 ft 274 kts 309°
2026-05-07 22:43 57.31037 12.41112 7682 ft 273 kts 310°
2026-05-07 22:43 57.32475 12.38833 7356 ft 275 kts 332°
2026-05-07 22:43 57.34216 12.37390 7088 ft 274 kts 335°
2026-05-07 22:43 57.35967 12.35973 6776 ft 274 kts 335°
2026-05-07 22:44 57.37711 12.34542 6475 ft 274 kts 335°
2026-05-07 22:44 57.39445 12.33104 6255 ft 270 kts 335°
2026-05-07 22:44 57.41131 12.31694 6175 ft 262 kts 335°
2026-05-07 22:44 57.42766 12.30321 6046 ft 255 kts 335°
2026-05-07 22:45 57.44356 12.28983 5969 ft 246 kts 335°
2026-05-07 22:45 57.45886 12.27689 5853 ft 237 kts 333°
2026-05-07 22:45 57.47101 12.25803 5674 ft 222 kts 298°
2026-05-07 22:45 57.47665 12.23203 5402 ft 215 kts 282°
2026-05-07 22:46 57.47993 12.20531 5030 ft 212 kts 280°
2026-05-07 22:46 57.48302 12.17835 4554 ft 213 kts 280°
2026-05-07 22:46 57.48704 12.15197 4111 ft 213 kts 300°
2026-05-07 22:46 57.49807 12.13556 3842 ft 203 kts 347°
2026-05-07 22:47 57.51122 12.13857 3653 ft 191 kts 32°
2026-05-07 22:47 57.52216 12.15191 3392 ft 185 kts 28°
2026-05-07 22:47 57.53354 12.16216 3141 ft 179 kts 26°
2026-05-07 22:47 57.54457 12.17196 2895 ft 173 kts 26°
2026-05-07 22:48 57.55530 12.18169 2661 ft 169 kts 26°
2026-05-07 22:48 57.56564 12.19112 2431 ft 161 kts 26°
2026-05-07 22:48 57.57557 12.20018 2245 ft 160 kts 26°
2026-05-07 22:48 57.58559 12.20932 2015 ft 162 kts 26°
2026-05-07 22:49 57.59565 12.21851 1783 ft 159 kts 26°
2026-05-07 22:49 57.60538 12.22739 1558 ft 153 kts 26°
2026-05-07 22:49 57.61481 12.23598 1345 ft 150 kts 26°
2026-05-07 22:49 57.62420 12.24455 1144 ft 150 kts 26°
2026-05-07 22:50 57.63365 12.25328 897 ft 153 kts 26°
2026-05-07 22:50 57.64330 12.26212 677 ft 156 kts 25°
2026-05-07 22:50 57.65283 12.27075 491 ft 147 kts 26°
2026-05-07 22:50 57.66052 12.27780 507 ft 93 kts 26°
2026-05-07 22:51 57.66439 12.28135 510 ft 34 kts 25°
2026-05-07 22:51 57.66625 12.28352 511 ft 29 kts 44°
2026-05-07 22:51 57.66720 12.28590 511 ft 17 kts 56°
2026-05-07 22:51 57.66744 12.28653 511 ft 0 kts 54°
2026-05-07 22:52 57.66747 12.28661 512 ft 3 kts 54°
2026-05-07 22:52 57.66766 12.28711 512 ft 6 kts 54°
2026-05-07 22:52 57.66794 12.28782 512 ft 8 kts 47°
2026-05-07 22:52 57.66846 12.28840 512 ft 10 kts 25°
2026-05-07 22:53 57.66907 12.28891 512 ft 10 kts 24°
2026-05-07 22:53 57.66973 12.28952 513 ft 12 kts 27°
2026-05-07 22:53 57.67040 12.29062 513 ft 13 kts 90°
2026-05-07 22:53 57.67007 12.29208 515 ft 11 kts 116°
2026-05-07 22:54 57.66980 12.29327 515 ft 8 kts 93°
2026-05-07 22:54 57.67012 12.29382 515 ft 7 kts 26°
2026-05-07 22:54 57.67030 12.29428 515 ft 3 kts 101°
2026-05-07 22:54 57.67018 12.29486 515 ft 6 kts 116°
2026-05-07 22:55 57.67008 12.29521 515 ft 1 kts 116°
2026-05-07 22:55 57.67007 12.29528 515 ft 0 kts 116°